This is the latest recevied weather packets stored in our database for station/object W5TUX. If no packets are shown the sender has not sent any weather packets the latest 10 day(s).
| Time | Temp. | Humidity | Pressure | Rain* | Wind** | Luminosity | Snow |
|---|---|---|---|---|---|---|---|
| 1777846219 | 27.22° C | 31% | 1021.1 hPa | 0 mm | - | 90 W/m² | - |
| 1777845914 | 26.67° C | 32% | 1021 hPa | 0 mm | - | 37 W/m² | - |
| 1777845611 | 27.22° C | 31% | 1021.2 hPa | 0 mm | - | 39 W/m² | - |
| 1777845309 | 26.67° C | 32% | 1021.1 hPa | 0 mm | - | 39 W/m² | - |
| 1777845005 | 27.78° C | 30% | 1021.2 hPa | 0 mm | - | 49 W/m² | - |
| 1777844704 | 27.22° C | 32% | 1021.3 hPa | 0 mm | - | 43 W/m² | - |
| 1777844400 | 27.78° C | 32% | 1021.4 hPa | 0 mm | - | 121 W/m² | - |
| 1777844099 | 27.78° C | 32% | 1021.3 hPa | 0 mm | - | 72 W/m² | - |
| 1777843794 | 27.78° C | 32% | 1021.6 hPa | 0 mm | - | 50 W/m² | - |
| 1777843492 | 27.78° C | 32% | 1021.6 hPa | 0 mm | - | 44 W/m² | - |
| 1777843189 | 27.78° C | 31% | 1021.5 hPa | 0 mm | - | 41 W/m² | - |
| 1777842887 | 27.78° C | 31% | 1021.6 hPa | 0 mm | - | 48 W/m² | - |
| 1777842583 | 27.78° C | 32% | 1021.8 hPa | 0 mm | - | 55 W/m² | - |
| 1777842280 | 27.22° C | 33% | 1021.9 hPa | 0 mm | - | 242 W/m² | - |
| 1777841980 | 27.78° C | 33% | 1022 hPa | 0 mm | - | 188 W/m² | - |
| 1777841677 | 27.78° C | 32% | 1021.9 hPa | 0 mm | - | 85 W/m² | - |
| 1777841373 | 28.33° C | 31% | 1022.2 hPa | 0 mm | - | 68 W/m² | - |
| 1777841071 | 28.33° C | 31% | 1022.1 hPa | 0 mm | - | 176 W/m² | - |
| 1777840768 | 27.78° C | 32% | 1022.2 hPa | 0 mm | - | 58 W/m² | - |
| 1777840465 | 27.78° C | 31% | 1022.5 hPa | 0 mm | - | 64 W/m² | - |
| 1777840161 | 27.78° C | 32% | 1022.6 hPa | 0 mm | - | 99 W/m² | - |
| 1777839860 | 27.78° C | 32% | 1022.6 hPa | 0 mm | - | 454 W/m² | - |
| 1777839558 | 27.78° C | 32% | 1022.5 hPa | 0 mm | - | 571 W/m² | - |
| 1777839255 | 27.22° C | 32% | 1022.7 hPa | 0 mm | - | 59 W/m² | - |
| 1777838952 | 27.22° C | 31% | 1022.9 hPa | 0 mm | - | 60 W/m² | - |
* Rain latest hour (hover to see other rain measurements)
** Current wind speed in m/s (hover to see current wind gust speed)